Notices

What's New in latest Release from April 7th, 2021:

- Updated Glossary, including Speed of Maximum Gust, and Total Hourly Precipitation

- Updated national and regional climate services offices contacts and prices information

- Addition of station inventory lists for 1981-2010, 1971-2000, and 1961-1990 Normals.

If you haven't already, please take our survey and provide feedback about our website: https://eccc.sondage-survey.ca/f/LanguageSelection.aspx?s=442ca660-fcf1-47c0-95a9-59707d6fd709

Hourly Data Report for August 11, 2017

TORONTO CITY
ONTARIO

43°40'00.000" N
79°24'00.000" W
112.50 m
6158355
71508
XTO

Download Data

Hourly Data (August 2017)
Hourly Data Report for August 11, 2017
TIME
LST
Temp Definition
°C
Dew Point Definition
°C
Rel Hum Definition
%
Precip. Amount Definition
mm

Wind Dir Definition
10's deg

Wind Spd Definition
km/h
Visibility Definition
km
Stn Press Definition
kPa
Hmdx Definition


Wind Chill Definition


Weather Definition


00:00 21.2 16.7 76 0.0 LegendMM LegendMM   100.44 26   LegendNANA
01:00 22.0 15.9 68 0.0 LegendMM LegendMM   100.39 27   LegendNANA
02:00 21.5 16.4 73 0.0 LegendMM LegendMM   100.35 26   LegendNANA
03:00 21.3 17.2 78 0.0 LegendMM LegendMM   100.32 27   LegendNANA
04:00 21.2 17.1 77 0.0 LegendMM LegendMM   100.32 27   LegendNANA
05:00 21.3 17.3 78 0.0 LegendMM LegendMM   100.34 27   LegendNANA
06:00 21.6 17.8 79 0.0 LegendMM LegendMM   100.32 27   LegendNANA
07:00 21.9 18.2 80 LegendMM LegendMM LegendMM   100.30 28   LegendNANA
08:00 21.9 18.1 79 LegendMM LegendMM LegendMM   100.29 28   LegendNANA
09:00 22.6 18.6 78 LegendMM LegendMM LegendMM   100.27 29   LegendNANA
10:00 23.5 18.8 75 LegendMM LegendMM LegendMM   100.26 30   LegendNANA
11:00 23.7 18.8 74 LegendMM LegendMM LegendMM   100.24 30   LegendNANA
12:00 23.5 18.7 75 LegendMM LegendMM LegendMM   100.22 30   LegendNANA
13:00 23.7 18.5 73 LegendMM LegendMM LegendMM   100.17 30   LegendNANA
14:00 22.9 18.5 76 LegendMM LegendMM LegendMM   100.11 29   LegendNANA
15:00 24.1 18.2 70 LegendMM LegendMM LegendMM   100.04 30   LegendNANA
16:00 23.7 18.2 71 LegendMM LegendMM LegendMM   100.00 30   LegendNANA
17:00 22.9 17.7 73 LegendMM LegendMM LegendMM   99.97 29   LegendNANA
18:00 21.8 16.2 70 LegendMM LegendMM LegendMM   99.90 27   LegendNANA
19:00 21.9 15.9 69 LegendMM LegendMM LegendMM   99.90 26   LegendNANA
20:00 20.6 16.4 77 LegendMM LegendMM LegendMM   99.89 25   LegendNANA
21:00 19.6 16.6 83 LegendMM LegendMM LegendMM   99.78     LegendNANA
22:00 19.5 17.4 88 LegendMM LegendMM LegendMM   99.79     LegendNANA
23:00 19.7 16.9 84 LegendMM LegendMM LegendMM   99.74     LegendNANA

Notes on Data Quality.

Legend

  • E = Estimated
  • M = Missing
  • NA = Not Available*
  • [empty] = Indicates an unobserved value
Date modified: